Voltar ao catálogo

SL-23 R/B

AtivoHEO
NORAD 37835·ROCKET BODY·🇷🇺 Russia

Lançado Oct 5, 2011 de Baikonur Cosmodrome

Loading…

Próximas Passagens (próximas 24 horas)

TLE

AtualizadoSource: Space-Track

Época: Sep 13, 2026, 07:11 UTC

1 37835U 11056B   26256.29946707  .00000206  00000-0  00000-0 0  9992
2 37835  19.5302 310.6790 5667139 288.3816  20.0106  1.96795628107401

Acompanhe SL-23 R/B em tempo real com AllMySat

Download on the App Store